Location: Sun City Center
(27.6996°N, 82.3528°W)
Time: 01:24:33
(UTC-04:00)

Hubble Space Telescope - Visible Passes

Search period start: 22 October 2018 00:00
Search period end: 01 November 2018 00:00
Orbit: 537 x 541 km, 28.5° (Epoch: 21 October)

Date Brightness Start Highest point End Pass type
(mag) Time Alt. Az. Time Alt. Az. Time Alt. Az.
22 Oct 0.7 06:16:26 41° W 06:17:47 85° S 06:21:55 10° ESE visible
23 Oct 0.7 06:06:43 58° WSW 06:07:24 75° S 06:11:31 10° ESE visible
24 Oct 0.8 05:57:01 64° SSW 05:57:01 64° SSW 06:01:05 10° ESE visible
25 Oct 1.5 05:47:22 45° SSE 05:47:22 45° SSE 05:50:36 10° ESE visible
26 Oct 2.3 05:37:44 29° SSE 05:37:44 29° SSE 05:40:05 10° SE visible
27 Oct 3.1 05:28:09 19° SE 05:28:09 19° SE 05:29:30 10° SE visible
28 Oct 3.7 05:18:36 11° SE 05:18:36 11° SE 05:18:50 10° SE visible
30 Oct 3.2 20:17:00 10° S 20:17:58 12° SSE 20:17:58 12° SSE visible
31 Oct 2.7 20:05:38 10° SSW 20:08:13 16° SSE 20:08:22 16° SSE visible
